Simultaneous Nadir Overpasses (SNOs) Predictions

Prediction of SNOs between FY3D and AQUA Satellite Orbit:

Table of predicted SNOs for the next 14.0 days since TLE Epoch: 5/16/2020
Index Date (FY3D) Time (FY3D) Lat,Lon (FY3D) SZA (FY3D ) Date (AQUA) Time (AQUA) Lat,Lon (AQUA) SZA (AQUA ) Distance(km) Time Diff (sec)
1 05/17/2020 06:37:05 -62.88, 120.66 88.23 05/17/2020 06:38:09 -62.88, 120.66 88.30 0.02 64
2 05/17/2020 07:26:26 67.38, -67.51 87.17 05/17/2020 07:26:14 67.39, -67.48 87.17 1.28 12
3 05/19/2020 22:53:41 -62.14,-124.04 88.03 05/19/2020 22:54:50 -62.14,-124.03 88.12 0.52 69
4 05/19/2020 23:42:58 66.88, 47.81 87.15 05/19/2020 23:42:51 66.89, 47.85 87.14 2.08 7
5 05/20/2020 00:27:16 -81.21, -66.07 114.47 05/20/2020 00:26:03 -81.78, -65.77 114.20 63.77 73
6 05/22/2020 15:10:30 -60.73, -9.22 87.11 05/22/2020 15:11:44 -60.71, -9.19 87.19 3.09 74
7 05/22/2020 15:59:12 67.40, 164.33 86.10 05/22/2020 15:59:11 67.39, 164.28 86.12 2.15 1
8 05/22/2020 16:47:27 -75.15, -14.05 102.35 05/22/2020 16:46:13 -75.26, -14.59 102.24 19.59 74
9 05/25/2020 08:15:44 66.94, -80.30 86.12 05/25/2020 08:15:48 66.94, -80.33 86.13 1.70 4
10 05/25/2020 09:05:30 -70.15, 91.28 97.26 05/25/2020 09:04:19 -70.15, 91.26 97.18 0.59 71
11 05/28/2020 00:32:16 66.48, 35.10 86.18 05/28/2020 00:32:25 66.48, 35.07 86.18 1.43 9




NCC Satellite Simultaneous Nadir Overpasses (SNOs) Prediction Service
